Regional Weather Roundup
Issued by NWS

Home | Current Version | Previous Version | Text Only | Print | Product List | Glossary Off
Versions: 1 2 3 4 5 6 7 8 9 10 11 12 13 14 15 16 17 18 19 20 21 22 23 24 25 26 27 28 29 30 31 32 33 34 35 36 37 38 39 40 41 42 43 44 45 46 47 48 49 50

000
ASUS43 KOAX 110410
RWRNE

WEATHER ROUNDUP FOR NEBRASKA
NATIONAL WEATHER SERVICE OMAHA NE
1100 PM CDT THU JUL 10 2014

NOTES: SATELLITE DATA IS BEING USED TO AUGMENT CLOUD COVER ABOVE
       12000 FEET.
       "FAIR" INDICATES FEW OR NO CLOUDS BELOW 12,000 FEET WITH NO
       SIGNIFICANT WEATHER AND/OR OBSTRUCTIONS TO VISIBILITY.

  * THESE STATIONS DO NOT REPORT WEATHER SUCH AS RAIN...SNOW OR FOG.

NEZ001>004-019>022-054>056-110500-
NEBRASKA PANHANDLE

CITY           SKY/WX    TMP DP  RH WIND       PRES   REMARKS
SCOTTSBLUFF    CLOUDY    69  62  78 NW6       30.02R
ALLIANCE       CLOUDY    67  62  84 N13       30.02R
CHADRON        CLOUDY    68  64  87 S8        29.95F
KIMBALL        CLOUDY    68  60  77 W28G37    30.08R
SIDNEY         CLOUDY    77  56  48 N15G24    30.01R
$$

NEZ057>060-069>072-079>082-110500-
SOUTHWEST NEBRASKA

CITY           SKY/WX    TMP DP  RH WIND       PRES   REMARKS
NORTH PLATTE   PTCLDY    76  67  73 SE10      29.94R
IMPERIAL       CLEAR     77  65  66 SE9       29.93R
LEXINGTON      CLEAR     75  69  80 SE9       29.95R
MCCOOK         CLEAR     76  69  79 SE13      29.94R
OGALLALA       CLOUDY    78  64  61 E7        29.93R
$$

NEZ005>010-023>029-035>040-094-110500-
NORTH CENTRAL NEBRASKA

CITY           SKY/WX    TMP DP  RH WIND       PRES   REMARKS
VALENTINE      CLOUDY    74  62  66 W6        29.96R
AINSWORTH      MOCLDY    76  66  71 SW15      29.97R
BROKEN BOW     MOCLDY    73  67  81 SE8       29.96R
O`NEILL        MOCLDY    76  64  67 S18G24    29.92S
ORD            CLEAR     73  66  78 SE9       29.94R
THEDFORD       CLOUDY    79  68  70 CALM      29.99R
$$

NEZ041-046>049-061>064-073>077-083>087-110500-
SOUTH CENTRAL NEBRASKA

CITY           SKY/WX    TMP DP  RH WIND       PRES   REMARKS
GRAND ISLAND   CLEAR     74  64  71 SE14      29.97R
AURORA         CLEAR     74  65  74 SE12      29.98R
HASTINGS       CLEAR     74  63  68 SE13      29.97R
HEBRON         CLEAR     75  64  67 SE8       30.00R
HOLDREGE       CLEAR     74  67  78 SE12      29.96R
KEARNEY *      CLEAR     72  64  78 SE8       29.97R
YORK           CLEAR     73  66  78 SE13      29.99R
$$

NEZ011>018-030>034-042>045-110500-
NORTHEAST NEBRASKA

CITY           SKY/WX    TMP DP  RH WIND       PRES   REMARKS
NORFOLK        CLEAR     74  64  71 S15       29.96R
ALBION         PTCLDY    73  64  72 SE10      29.96R
BLAIR          CLEAR     75  64  68 S16G23    30.00S
TEKAMAH        CLEAR     76  65  68 SE12      29.99R
WAYNE          CLEAR     73  67  80 S7        29.97R
$$

NEZ050>053-065>068-078-088>093-110500-
SOUTHEAST NEBRASKA

CITY           SKY/WX    TMP DP  RH WIND       PRES   REMARKS
LINCOLN        CLEAR     77  64  64 S14       30.01R
OMAHA EPPLEY   CLEAR     76  64  66 S21       30.00R
BEATRICE       CLEAR     72  64  77 SE10      30.01R
FALLS CITY     CLEAR     73  66  78 SE9       30.03R
NEBRASKA CITY  CLEAR     72  66  81 SE12      30.02S
PLATTSMOUTH    CLEAR     73  64  72 SE9G16    30.01S
$$

NEZ044-045-051>053-067-110500-
OMAHA AREA

CITY           SKY/WX    TMP DP  RH WIND       PRES   REMARKS
OMAHA EPPLEY   CLEAR     76  64  66 S21       30.00R
BLAIR          CLEAR     75  64  68 S16G23    30.00S
MILLARD        CLEAR     75  66  73 SE12      30.00S
OFFUTT AFB     CLEAR     74  69  86 SE14      30.00R
PLATTSMOUTH    CLEAR     73  64  72 SE9G16    30.01S
WAHOO          FAIR      74  65  73 SE10      29.99S
$$


USA.gov is the U.S. government's official web portal to all federal, state and local government web resources and services.